Location: St Paul
(33.4390°N, 83.7350°W)
Time: 03:24:28
(UTC-05:00)

HJ-1C - Pass Details

Date: 06 October 2017
Orbit: 440 x 458 km, 97.2° (Epoch: 11 December)

Event Time Altitude Azimuth Distance (km) Brightness Sun altitude
Exits shadow 20:48:56 60° 2° (N) 513 3.6 -21.0°
Drops below altitude 10° 20:51:46 10° 351° (N) 1,576 6.3 -21.5°
Sets 20:53:49 0° 350° (N) 2,455 7.4 -22.0°
